Location: ???????
(55.4362°N, 38.1183°E)
Time: 14:02:50
(UTC+00:00)

Oscar 11 - Pass Details

Date: 09 December 2021
Orbit: 611 x 625 km, 97.6° (Epoch: 25 January)

Event Time Altitude Azimuth Distance (km) Brightness Sun altitude
Rises 03:03:57 0° 15° (NNE) 2,921 10.6 -20.8°
Reaches altitude 10° 03:06:09 10° 16° (NNE) 2,008 9.7 -20.5°
Maximum altitude 03:10:32 79° 103° (ESE) 640 7.1 -19.9°
Drops below altitude 10° 03:14:52 10° 192° (SSW) 1,984 9.7 -19.3°
Sets 03:17:02 0° 193° (SSW) 2,883 10.5 -19.0°
